Blast from the Past Half and 1/2*

Saturday, January 30, 2016 10:00 AM (GMT-8) - Final results

Race info
Sport: Running - trail
Location: Issaquah, WA, United States
Start type: Manual wave start
Wave grouping: By distance
Racers: 128
Timed on: iPad
Timed with: Webscorer PRO 2.1
Updated: Thursday, November 8, 2018 4:41 PM (GMT-8)

Contact organizer

Use this form to send an email to the organizer.

Your name
Your email address
Confirm email address
Message to organizer
Send

Blast from the Past Half and 1/2*

Place Bib Racer name Affiliation Category Age Gender Finish time
131Egbert, TravisTempe, AZ 20-2926M 51:50.3--100%38.22%37.74%
257Juhl, TorbenSeattle, WA 40-4949M 52:57.4+1:07.1+2.16%97.89%36.89%36.40%
336Farrell, KerryFederal Way, WA 50-5955M 53:04.1+1:13.8+2.37%97.68%36.76%36.26%
488Rembac, RossIssaquah, WA 40-4949M 53:09.9+1:19.6+2.56%97.50%36.64%36.15%
552Heaps, SteveFall City, WA 50-5951M 53:53.4+2:03.1+3.96%96.19%35.78%35.28%
696Stueber, RyanAuburn, WA 30-3935M 54:24.0+2:33.7+4.94%95.29%35.17%34.66%
728Davidson, Patricia 30-3933F 55:49.2+3:58.9+7.68%92.87%33.48%32.96%
811Brandt, JeffLake Tapps, WA 50-5951M 56:51.1+5:00.8+9.67%91.18%32.25%31.72%
963Koster, BrandSeattle, WA 20-2925M 56:55.7+5:05.4+9.82%91.06%32.16%31.63%
1081O'neill, MikeBrooklyn, NY 50-5952M 57:12.8+5:22.5+10.37%90.61%31.82%31.28%
1192Schulte, SteveSeattle, WA 40-4942M 58:55.0+7:04.7+13.65%87.99%29.79%29.24%
1248Grubb, JaySeattle, WA 50-5955M 59:28.6+7:38.3+14.73%87.16%29.12%28.57%
13121Dena Becker 40-4941F 59:30.3+7:40.0+14.79%87.12%29.09%28.53%
14114Wetzel, CourtneyPuyallup, WA 20-2926F 59:30.7+7:40.4+14.80%87.11%29.08%28.52%
15105Van Amen, DarrellBellevue, WA 50-5950M 1:00:34.0+8:43.7+16.84%85.59%27.82%27.26%
1682Parkison, BenRedmond, WA 30-3933M 1:01:49.9+9:59.6+19.28%83.84%26.32%25.74%
17195Mills, GregoryBellevue, WA 50-5953M 1:02:10.0+10:19.7+19.92%83.39%25.92%25.34%
181Anderson, MatthewSeattle, WA 30-3935M 1:02:56.9+11:06.6+21.43%82.35%24.99%24.40%
19218Serbousek, LindsayBremerton, WA 30-3930F 1:03:00.0+11:09.7+21.53%82.28%24.92%24.33%
2079Morrissey, LauraCovington, WA 30-3936F 1:03:49.1+11:58.8+23.11%81.23%23.95%23.35%
2172Mckillop, EllaIssaquah, WA 0-1914F 1:04:44.7+12:54.4+24.90%80.07%22.84%22.24%
22120Emma Jordan 0-1914F 1:04:50.6+13:00.3+25.09%79.94%22.73%22.12%
2338Fowler, MelissaSeattle, WA 30-3937F 1:05:40.2+13:49.9+26.68%78.94%21.74%21.13%
2495Smith, MichaelDes Moines, WA 50-5956M 1:06:14.4+14:24.1+27.78%78.26%21.06%20.44%
2594Shivers, SteveSteve Shivers, WA 40-4946M 1:07:25.3+15:35.0+30.06%76.89%19.65%19.02%
26100Tarnacha, Ankur 30-3937F 1:07:34.6+15:44.3+30.36%76.71%19.47%18.84%
2760Kent, KevinDes Moines, WA 50-5950M 1:08:31.4+16:41.1+32.19%75.65%18.34%17.70%
2814Cantrall, LoganSammamish, WA 0-1910M 1:09:01.3+17:11.0+33.15%75.10%17.75%17.10%
2962Knoy, JustinSeattle, WA 30-3934M 1:09:07.8+17:17.5+33.36%74.99%17.62%16.97%
3047Graham, DanKenmore, WA 40-4945M 1:09:09.7+17:19.4+33.42%74.95%17.58%16.93%
3110Boutillier, WilfriedSeattle, WA 40-4940M 1:09:14.8+17:24.5+33.58%74.86%17.48%16.83%
3218Carlson, LynnSeattle, WA 30-3931F 1:09:58.3+18:08.0+34.98%74.08%16.62%15.96%
33115Wilson, PaigeSeattle, WA 20-2926F 1:10:01.9+18:11.6+35.10%74.02%16.54%15.89%
3467Lee, AllisonSeattle, WA 30-3932F 1:10:43.0+18:52.7+36.42%73.30%15.73%15.07%
3561Keresteci, ErcenkRedmond, WA 40-4948M 1:11:10.8+19:20.5+37.31%72.83%15.18%14.51%
363Baker, AileenSeattle, WA 30-3931F 1:11:17.8+19:27.5+37.54%72.71%15.04%14.37%
3773Mcnamara, LoganSeattle, WA 20-2924F 1:11:20.7+19:30.4+37.63%72.66%14.98%14.31%
3835Farkas, RachelSeattle 30-3937F 1:11:37.0+19:46.7+38.15%72.38%14.66%13.99%
39111Weiss, GeorgeBellevue, WA 60-6965M 1:12:22.7+20:32.4+39.62%71.62%13.75%13.07%
4030Echols, RosalindSeattle, WA 30-3933F 1:12:37.8+20:47.5+40.11%71.37%13.45%12.77%
4168MANUM, MARKSeattle, WA 50-5950M 1:13:18.9+21:28.6+41.43%70.71%12.63%11.95%
429Bosket, KenArlington, WA 60-6960M 1:13:24.8+21:34.5+41.62%70.61%12.51%11.83%
4393Shivers, MindyBellevue, WA 40-4947F 1:16:03.7+24:13.4+46.73%68.15%9.36%8.65%
4427Darrin, JimRedmond, WA 30-3939M 1:16:17.8+24:27.5+47.18%67.94%9.08%8.37%
458Boehnke, TaylorKennewick, WA 30-3933F 1:16:20.9+24:30.6+47.28%67.90%9.02%8.30%
46112Welle, JasonIssaquah, WA 30-3939M 1:16:56.5+25:06.2+48.43%67.37%8.31%7.59%
4775Miller, Brittany 20-2928F 1:17:05.8+25:15.5+48.73%67.24%8.12%7.40%
487Blatt, EricSeattle, WA 30-3935M 1:17:13.0+25:22.7+48.96%67.13%7.98%7.26%
4912Brazao, JoaoCosta Da Caparica, Portugal 40-4942M 1:19:00.1+27:09.8+52.40%65.62%5.85%5.12%
5058Keijzer, HermanGroningen 40-4949M 1:19:01.9+27:11.6+52.46%65.59%5.82%5.08%
5129Drake, LisaAuburn, WA 40-4941F 1:19:03.3+27:13.0+52.50%65.57%5.79%5.05%
52203Pothier, KelsiRenton, WA 30-3939F 1:19:14.4+27:24.1+52.86%65.42%5.57%4.83%
53193Mattson, StacySeattle, WA 30-3939F 1:19:18.4+27:28.1+52.99%65.36%5.49%4.75%
5470Mcallen, KathyMaple Valley, WA 30-3936F 1:21:03.9+29:13.6+56.38%63.95%3.40%2.64%
5591Santos, CarolynSnoqualmie, WA 40-4940F 1:21:07.7+29:17.4+56.50%63.90%3.32%2.56%
5699Swoish, DougOak Harbor, WA 60-6960M 1:21:39.4+29:49.1+57.52%63.48%2.69%1.93%
5769Martinez, Dennis RayCovington, WA 60-6960M 1:21:41.5+29:51.2+57.59%63.46%2.65%1.89%
5849Hall, DanaKirkland, WA 30-3930F 1:23:15.7+31:25.4+60.62%62.26%0.78%0.00%
5917Carlisle, MatthewSammamish, WA 30-3939M 1:23:30.7+31:40.4+61.10%62.07%0.48%-0.30%
6064Kritovich, AngieRenton, WA 30-3935F 1:25:09.3+33:19.0+64.27%60.88%-1.48%-2.27%
61104Upton, NathanTacoma, WA 40-4941M 1:25:11.2+33:20.9+64.33%60.85%-1.52%-2.31%
6234Fall, KarenDes Moines, WA 40-4949F 1:25:25.2+33:34.9+64.78%60.69%-1.79%-2.59%
6322Chesshire, JamesFederal Way, WA 50-5956M 1:25:46.2+33:55.9+65.46%60.44%-2.21%-3.01%
642Aronica, TonyEllensburg, WA 30-3930M 1:26:24.4+34:34.1+66.68%59.99%-2.97%-3.78%
6550Halpin, ErinSeattle, WA 20-2928F 1:26:35.8+34:45.5+67.05%59.86%-3.20%-4.01%
6656Johanski, MichelleSNOHOMISH, WA 30-3937F 1:28:30.1+36:39.8+70.73%58.57%-5.47%-6.29%
67117Yang, Yue (Abby)SNOHOMISH, WA 30-3938F 1:28:35.7+36:45.4+70.91%58.51%-5.58%-6.41%
6844Gitau, TravisSeattle, WA 20-2928M 1:29:02.6+37:12.3+71.77%58.22%-6.11%-6.94%
6974Meade, RachelTumwater, WA 40-4944F 1:30:56.6+39:06.3+75.44%57.00%-8.38%-9.23%
7020Chartier, JamieSeattle, WA 30-3933F 1:31:23.9+39:33.6+76.31%56.72%-8.92%-9.77%
7115Cantrall, MadiganSammamish, WA 0-199F 1:31:33.5+39:43.2+76.62%56.62%-9.11%-9.96%
7216Cantrall, RobertSammamish, WA 30-3939M 1:31:34.0+39:43.7+76.64%56.61%-9.12%-9.97%
73118Jeremy Tucker 30-3939M 1:31:38.6+39:48.3+76.79%56.57%-9.21%-10.07%
7454Humbert, KathleenShoreline, WA 40-4946F 1:32:00.2+40:09.9+77.48%56.34%-9.64%-10.50%
7539Fu, WingColleyville, TX 30-3934F 1:32:18.4+40:28.1+78.07%56.16%-10.00%-10.86%
76109Walters, CurtisCanton, GA 40-4943M 1:32:33.4+40:43.1+78.55%56.01%-10.30%-11.16%
77137Bishop, CarolineSeattle, WA 30-3933F 1:32:36.6+40:46.3+78.65%55.97%-10.36%-11.23%
78167Halpern, HelenSeattle, WA 30-3931F 1:32:38.6+40:48.3+78.72%55.95%-10.40%-11.27%
7998Sweeney, JohnBothell, WA 40-4944M 1:33:24.5+41:34.2+80.19%55.50%-11.31%-12.19%
8021Cheah, DanielSeattle, WA 30-3939M 1:33:38.9+41:48.6+80.65%55.35%-11.60%-12.47%
8197Sutherland, BruceMill Creek WA. 60-6966M 1:34:01.2+42:10.9+81.37%55.14%-12.04%-12.92%
82106Van Amen, JeanieBellevue, WA 50-5955F 1:34:52.0+43:01.7+83.00%54.64%-13.05%-13.94%
8385Potvin, ChristianSeattle, WA 40-4948M 1:34:54.4+43:04.1+83.08%54.62%-13.10%-13.99%
84169Harig, CarolIssaquah, WA 40-4943F 1:36:07.0+44:16.7+85.42%53.93%-14.54%-15.44%
85102Trimble, VanessaCentralia, WA 30-3933F 1:36:27.7+44:37.4+86.08%53.74%-14.95%-15.85%
8624Christensen, AngieCentralia, WA 30-3931F 1:36:28.8+44:38.5+86.12%53.73%-14.97%-15.88%
8780Mota, MariaTacoma, WA 20-2925F 1:36:37.5+44:47.2+86.40%53.65%-15.15%-16.05%
8813Brown, CoryTacoma 20-2925M 1:36:45.6+44:55.3+86.66%53.57%-15.31%-16.21%
8941GIACCIO, JOETacoma, WA 40-4945M 1:37:10.7+45:20.4+87.46%53.34%-15.81%-16.71%
9042GIACCIO, MARIATacoma, WA 30-3938F 1:37:11.2+45:20.9+87.48%53.34%-15.82%-16.72%
91113West, MichelleMill Creek, WA 40-4948F 1:37:22.9+45:32.6+87.86%53.23%-16.05%-16.96%
9251Hawkins, DianeBothell, WA 40-4947F 1:37:24.4+45:34.1+87.90%53.22%-16.08%-16.99%
93116Winslow, LindseySNOHOMISH, WA 30-3934F 1:38:04.2+46:13.9+89.18%52.86%-16.87%-17.79%
9471Mcallister, LisaBothell, WA 40-4946F 1:38:57.3+47:07.0+90.89%52.39%-17.92%-18.85%
9589Rodriguez, JoemarieEverett, WA 30-3937F 1:39:24.0+47:33.7+91.75%52.15%-18.45%-19.38%
9666Kutter, KourtneyPortlant, OR 30-3930F 1:40:20.5+48:30.2+93.57%51.66%-19.58%-20.51%
9719Casne, TomBellevue, WA 30-3933M 1:40:20.7+48:30.4+93.57%51.66%-19.58%-20.52%
9855HURD, STACEYSammamish, WA 30-3938F 1:41:14.4+49:24.1+95.30%51.20%-20.65%-21.59%
9965Kropp, AshleyTacoma, WA 20-2929F 1:42:27.1+50:36.8+97.64%50.60%-22.09%-23.05%
10033Evjene, AmandaGranite Falls, WA 20-2929F 1:42:30.2+50:39.9+97.74%50.57%-22.15%-23.11%
10123Chrisman, NicoleBrier, WA 40-4945F 1:43:31.6+51:41.3+99.71%50.07%-23.37%-24.34%
10276Moore, ElizabethBellevue, WA 40-4942F 1:45:38.4+53:48.1+103.79%49.07%-25.89%-26.88%
103119Michael McCormack 40-4943M 1:45:42.9+53:52.6+103.93%49.04%-25.98%-26.97%
104110Weaver, TomBremerton, WA 40-4947M 1:48:16.8+56:26.5+108.88%47.87%-29.04%-30.05%
1056Baresh, DanSeattle, WA 50-5950M 1:48:29.4+56:39.1+109.29%47.78%-29.29%-30.30%
10677MORLAN, CJUniversity Place, WA 50-5951F 1:58:45.1+1:06:54.8+129.08%43.65%-41.51%-42.62%
1075Banks, HeatherMill Creek, WA 40-4943M 2:00:13.2+1:08:22.9+131.91%43.12%-43.26%-44.39%
10884Pilon, JuliaIssaquah, WA 30-3932F 2:00:16.0+1:08:25.7+132.00%43.10%-43.32%-44.44%
10940George, DanielleLynnwood, WA 30-3931F 2:00:17.3+1:08:27.0+132.05%43.10%-43.35%-44.47%
1104Balint, IlanaEdmonds, WA 30-3937F 2:05:30.6+1:13:40.3+142.12%41.30%-49.57%-50.74%
111103Tsuji, CindySan Diego, CA 40-4948F 2:05:34.2+1:13:43.9+142.23%41.28%-49.64%-50.81%
11226Cox, KathySeattle, WA 50-5956F 2:05:38.2+1:13:47.9+142.36%41.26%-49.72%-50.89%
11353Hippensteal, JessicaPuyallup, WA 20-2925F 2:05:41.2+1:13:50.9+142.46%41.24%-49.78%-50.95%
11446Govila, Angela 30-3932F 2:07:49.9+1:15:59.6+146.60%40.55%-52.34%-53.53%
11537Foster, ChristinaFederal Way, WA 30-3939F 2:07:51.1+1:16:00.8+146.64%40.55%-52.36%-53.55%
-25Clithero, LoriSeattle, WA 50-5955F DNF-----
-32Ernst, JackieSeattle, WA 20-2928F DNF-----
-43Gierke, AndiIssaquah, WA 30-3938F DNF-----
-45Glad, HeatherBellingham, WA 30-3933F DNF-----
-59Keltz, AnnaSeattle, WA 30-3934F DNF-----
-78Morrier-Turk, MelissaSNOHOMISH, WA 40-4943F DNF-----
-83Perry, Valente 40-4940M DNF-----
-86Prakash, ShaliniBellevue, WA 30-3937F DNF-----
-87Randall, RebeccaSan Francisco 30-3934F DNF-----
-90Rosenfeld, EricBrooklyn, NY 30-3935M DNF-----
-107Wacker, MikeBellevue, WA 20-2927M DNF-----
-108Walls, NicholasSeattle, WA 20-2928M DNF-----
-201Perez, JimBellingham, WA 50-5957M DNF-----